Hourly Data Report for June 14, 2012

HALIFAX STANFIELD INT'L A
NOVA SCOTIA

44°52'48.060" N
63°30'00.050" W
145.40 m
8202250
71395
YHZ

Download Data

Hourly Data (June 2012)
Hourly Data Report for June 14, 2012
TIME
LST
Temp Definition
°C
Dew Point Definition
°C
Rel Hum Definition
%
Precip. Amount Definition
mm

Wind Dir Definition
10's deg

Wind Spd Definition
km/h
Visibility Definition
km
Stn Press Definition
kPa
Hmdx Definition


Wind Chill Definition


Weather Definition


00:00 9.6 9.4 99   16 4 0.4 100.12     Fog
01:00 8.6 8.4 99   17 6 2.4 100.15     Fog
02:00 9.2 8.9 98     0 24.1 100.14     Clear
03:00 10.0 9.5 97   28 7 24.1 100.13     Clear
04:00 10.5 9.5 94   33 6 24.1 100.15     Mainly Clear
05:00 10.1 9.9 99   33 9 0.2 100.18     Fog
06:00 11.1 10.7 97   35 11 0.2 100.21     Fog
07:00 11.9 11.6 98   35 11 0.4 100.23     Fog
08:00 12.7 12.3 97   34 15 0.8 100.27     Fog
09:00 15.1 14.3 95   35 13 24.1 100.26     Mostly Cloudy
10:00 19.0 14.5 75   1 13 24.1 100.27     Mostly Cloudy
11:00 20.5 15.3 72   1 9 24.1 100.26 25   Mostly Cloudy
12:00 21.7 15.1 66   1 13 24.1 100.26 26   Mostly Cloudy
13:00 22.1 14.5 62   33 7 24.1 100.25 26   Cloudy
14:00 22.0 14.9 64   34 20 24.1 100.28 26   Cloudy
15:00 21.0 15.3 70   34 22 24.1 100.29 25   Mostly Cloudy
16:00 19.9 15.5 76   33 22 24.1 100.29     Cloudy
17:00 18.8 15.0 79   34 26 24.1 100.35     Cloudy
18:00 17.1 14.0 82   35 24 24.1 100.42     Cloudy
19:00 15.2 12.7 85   35 19 24.1 100.47     Cloudy
20:00 14.2 12.3 88   35 13 24.1 100.50     Mostly Cloudy
21:00 13.8 12.5 92   35 19 24.1 100.52     Mostly Cloudy
22:00 12.9 12.1 95   36 17 24.1 100.55     Mostly Cloudy
23:00 12.9 11.9 94   36 20 24.1 100.57     Mostly Cloudy

Notes on Data Quality.

Legend

  • E = Estimated
  • M = Missing
  • NA = Not Available*
  • [empty] = Indicates an unobserved value
Date modified: